Location: Olmeneta
(45.2333°N, 10.0167°E)
Time: 17:21:24
(UTC+00:00)

HJ-1C - Pass Details

Date: 03 March 2021
Orbit: 428 x 441 km, 97.1° (Epoch: 12 April)

Event Time Altitude Azimuth Distance (km) Brightness Sun altitude
Rises 18:31:09 0° 177° (S) 2,414 7.0 -15.1°
Reaches altitude 10° 18:33:12 10° 183° (S) 1,549 6.1 -15.4°
Maximum altitude 18:36:26 51° 260° (W) 558 4.2 -16.0°
Drops below altitude 10° 18:39:42 10° 338° (NNW) 1,555 6.5 -16.6°
Sets 18:41:46 0° 344° (NNW) 2,427 7.4 -16.9°
